TimeHST,TemperatureF,Dew PointF,Humidity,Sea Level PressureIn,VisibilityMPH,Wind Direction,Wind SpeedMPH,Gust SpeedMPH,PrecipitationIn,Events,Conditions,WindDirDegrees,DateUTC
12:53 AM,77.0,59.0,54,30.00,10.0,NNE,4.6,-,N/A,,Clear,20,2013-10-29 10:53:00
1:53 AM,78.1,59.0,52,29.98,10.0,NW,3.5,-,N/A,,Clear,310,2013-10-29 11:53:00
2:53 AM,77.0,60.1,56,29.97,10.0,ENE,5.8,-,N/A,,Scattered Clouds,70,2013-10-29 12:53:00
3:53 AM,75.9,61.0,60,29.97,10.0,NE,4.6,-,N/A,,Clear,50,2013-10-29 13:53:00
4:53 AM,73.9,60.1,62,29.97,10.0,NE,6.9,-,N/A,,Partly Cloudy,50,2013-10-29 14:53:00
5:53 AM,73.9,60.1,62,29.98,10.0,North,8.1,-,N/A,,Clear,350,2013-10-29 15:53:00
6:53 AM,73.0,61.0,66,29.98,10.0,ESE,8.1,-,N/A,,Clear,120,2013-10-29 16:53:00
7:53 AM,80.1,61.0,52,30.00,10.0,ESE,6.9,-,N/A,,Clear,120,2013-10-29 17:53:00
8:53 AM,82.9,61.0,47,30.01,10.0,SSE,10.4,-,N/A,,Clear,150,2013-10-29 18:53:00
9:53 AM,84.0,64.0,51,30.02,10.0,South,12.7,-,N/A,,Clear,180,2013-10-29 19:53:00
10:53 AM,84.0,66.0,55,30.00,10.0,South,11.5,-,N/A,,Clear,190,2013-10-29 20:53:00
11:53 AM,82.9,68.0,60,29.98,10.0,SSW,11.5,-,N/A,,Clear,200,2013-10-29 21:53:00
12:53 PM,84.0,66.0,55,29.96,10.0,SSW,10.4,-,N/A,,Mostly Cloudy,200,2013-10-29 22:53:00
1:53 PM,84.9,69.1,59,29.95,10.0,SW,9.2,-,N/A,,Partly Cloudy,220,2013-10-29 23:53:00
2:53 PM,84.9,70.0,61,29.94,10.0,SW,11.5,-,N/A,,Mostly Cloudy,230,2013-10-30 00:53:00
3:53 PM,82.9,70.0,65,29.95,10.0,WSW,12.7,-,N/A,,Mostly Cloudy,250,2013-10-30 01:53:00
4:53 PM,82.0,70.0,67,29.96,10.0,WSW,12.7,-,N/A,,Mostly Cloudy,240,2013-10-30 02:53:00
5:53 PM,81.0,70.0,69,29.99,10.0,West,13.8,-,N/A,,Overcast,260,2013-10-30 03:53:00
6:45 PM,77.0,66.2,69,30.01,10.0,ENE,3.5,-,0.00,Rain,Light Rain,60,2013-10-30 04:45:00
6:53 PM,77.0,66.9,71,30.01,10.0,ENE,16.1,19.6,0.00,Rain,Light Rain,60,2013-10-30 04:53:00
7:53 PM,73.0,70.0,90,30.04,5.0,Variable,4.6,-,N/A,Rain,Heavy Rain,0,2013-10-30 05:53:00
8:11 PM,73.4,68.0,83,30.04,10.0,Calm,Calm,-,0.06,Rain,Heavy Rain,0,2013-10-30 06:11:00
8:53 PM,73.9,69.1,85,30.05,10.0,Calm,Calm,-,0.07,,Overcast,0,2013-10-30 06:53:00
9:53 PM,73.9,70.0,87,30.05,10.0,Calm,Calm,-,N/A,,Mostly Cloudy,0,2013-10-30 07:53:00
10:53 PM,73.0,66.9,81,30.04,10.0,ENE,4.6,-,N/A,,Clear,70,2013-10-30 08:53:00
11:53 PM,73.0,66.0,79,30.03,10.0,East,5.8,-,N/A,,Clear,90,2013-10-30 09:53:00